DELTA 1 DEB

Satellite information

Favourite Embed

Satellite Type and Status

DEBRISIN ORBIT

Key statistics

Satellite DELTA 1 DEB at a glance.

Uptime

18374

Days in orbit

Revolutions

≈ 14.5

Per day

Orbit

SSO

Sun Synchronous Orbit

Inclination

97.3

Latest

Satellite identification and parameters

Extended collection of information and parameters for DELTA 1 DEB.

Object identification

Identified? True

Debris? True

Object name: DELTA 1 DEB

International designator: 1975-004BC

Object number (NORAD): 8970

Object ID (CCSDS): 8970

Country: UNITED STATES OF AMERICA (US)

Current information (Y/N): Y

RCS size: SMALL

Orbital parameters

Period: 99.593 minutes

Inclination: 97.2683 deg

SMA: 7117.27 km

Apoapsis: 813.612 km

Periapsis: 664.658 km

RAAN: 309.385 deg

Eccentricy: 0.0104643

Argument of periapsis: 13.5011 deg

Mean anomaly: 346.8945 deg

Mean motion: 14.4588114 rev/day

Mean motion (dot): 0.0000179 rev/day2

B* drag term: 0.00048063 1/REarth

Two-line elements (TLE)

Creation date: May 12, 2025, 7:41 p.m.

Reference frame: TEME

Reference center: EARTH

Epoch: May 12, 2025, 10:59 a.m. UTC

TLE line 0: 0 DELTA 1 DEB

TLE line 1: 1 08970U 75004BC 25132.45818495 .00001790 00000-0 48063-3 0 9998

TLE line 2: 2 08970 97.2683 309.3850 0104643 13.5011 346.8945 14.45881140561364

Live tracking on map

Real-time ground track for satellite DELTA 1 DEB.

In-orbit conjunctions

A list of the most updated potential collisions computed for object DELTA 1 DEB.

Target Orbit TCA Probability of collision Miss distance Type
CZ-6A DEB SSO 2024-11-12 21:06:37 0.0002055854 858.0 (m) DEBRIS

Associated space launch

Earth observation satellite

DELTA 1 DEB was lifted into orbit during the mission ‘Delta 2910 | Landsat 2’, on board a Delta 2910 space rocket.

The launch took place on Jan. 22, 1975, 5:55 p.m. from Space Launch Complex 2W.

For more information about the launch, click the button.

Launch to space Delta 2910 | Landsat 2
Delta 2910 | Landsat 2

Agency: N/A

Status: Launch Successful

Launch date: Jan. 22, 1975, 5:55 p.m. UTC

Rocket: Delta 2910

Launch pad: Space Launch Complex 2W

Location: Vandenberg SFB, CA, USA

...

Latest news about this satellite

There are no fresh news available about this satellite. Check back as we update our databases every day.


Newsletter sign-up

Weekly statistics, charts and insights to help you stay on top of the space industry.